Location: Oulou
(10.7667°N, 12.5167°W)
Time: 04:30:09
(UTC+00:00)

Envisat - Pass Details

Date: 20 September 2019
Orbit: 764 x 766 km, 98.1° (Epoch: 15 October)

Event Time Altitude Azimuth Distance (km) Brightness Sun altitude
Rises 19:13:10 0° 165° (SSE) 3,223 6.0 -7.1°
Reaches altitude 10° 19:15:28 10° 163° (SSE) 2,297 5.3 -7.7°
Maximum altitude 19:20:31 77° 77° (ENE) 786 2.9 -8.9°
Drops below altitude 10° 19:25:35 10° 352° (N) 2,296 5.6 -10.1°
Sets 19:27:53 0° 351° (N) 3,221 6.4 -10.7°
